| time (UTC) | temp F | wind direction | speed MPH | gust MPH | rain 1hr in | rain 24hr in | rain mn in | humidity % | barometer mb |
| 20260510053514 | 49 | 43 | 3.0 | 11.0 | 0.00 | 0.00 | 0.00 | 86 | 1016.5 |
| 20260510053030 | 49 | 72 | 3.0 | 11.0 | 0.00 | 0.00 | 0.00 | 86 | 1016.4 |
| 20260510052513 | 49 | 55 | 4.0 | 9.0 | 0.00 | 0.00 | 0.00 | 86 | 1016.5 |
| 20260510052014 | 49 | 56 | 3.0 | 8.0 | 0.00 | 0.00 | 0.00 | 85 | 1016.4 |
| 20260510051535 | 49 | 48 | 2.0 | 7.0 | 0.00 | 0.00 | 0.00 | 85 | 1016.4 |
| 20260510051016 | 49 | 53 | 2.0 | 7.0 | 0.00 | 0.00 | 0.00 | 85 | 1016.4 |
| 20260510050514 | 49 | 352 | 2.0 | 7.0 | 0.00 | 0.00 | 0.00 | 85 | 1016.3 |
| 20260510050031 | 49 | 0 | 2.0 | 6.0 | 0.00 | 0.00 | 0.00 | 85 | 1016.4 |
| 20260510045515 | 49 | 0 | 2.0 | 9.0 | 0.00 | 0.00 | 0.00 | 85 | 1016.5 |
| 20260510045016 | 49 | 66 | 2.0 | 9.0 | 0.00 | 0.00 | 0.00 | 85 | 1016.4 |
| 20260510044528 | 49 | 0 | 3.0 | 7.0 | 0.00 | 0.00 | 0.00 | 85 | 1016.5 |
| 20260510044020 | 49 | 0 | 2.0 | 7.0 | 0.00 | 0.00 | 0.00 | 85 | 1016.5 |
| 20260510043516 | 49 | 62 | 3.0 | 9.0 | 0.00 | 0.00 | 0.00 | 85 | 1016.5 |
| 20260510043030 | 49 | 40 | 1.0 | 9.0 | 0.00 | 0.00 | 0.00 | 85 | 1016.5 |
| 20260510042519 | 49 | 58 | 1.0 | 6.0 | 0.00 | 0.00 | 0.00 | 84 | 1016.4 |
| 20260510042015 | 49 | 50 | 1.0 | 5.0 | 0.00 | 0.00 | 0.00 | 84 | 1016.5 |
| 20260510041544 | 49 | 49 | 2.0 | 5.0 | 0.00 | 0.00 | 0.00 | 84 | 1016.5 |
| 20260510041015 | 49 | 70 | 1.0 | 7.0 | 0.00 | 0.00 | 0.00 | 84 | 1016.4 |
| 20260510040515 | 49 | 51 | 1.0 | 7.0 | 0.00 | 0.00 | 0.00 | 84 | 1016.4 |
| 20260510040033 | 49 | 35 | 2.0 | 6.0 | 0.00 | 0.00 | 0.00 | 84 | 1016.3 |
| 20260510035514 | 49 | 74 | 2.0 | 6.0 | 0.00 | 0.00 | 0.00 | 84 | 1016.4 |
| 20260510035014 | 49 | 58 | 1.0 | 4.0 | 0.00 | 0.00 | 0.00 | 83 | 1016.4 |
| 20260510034531 | 49 | 0 | 1.0 | 6.0 | 0.00 | 0.00 | 0.00 | 83 | 1016.4 |
| 20260510034014 | 49 | 57 | 2.0 | 6.0 | 0.00 | 0.00 | 0.00 | 83 | 1016.3 |
| 20260510033513 | 49 | 26 | 2.0 | 6.0 | 0.00 | 0.00 | 0.00 | 83 | 1016.4 |
| 20260510033027 | 49 | 0 | 0.0 | 6.0 | 0.00 | 0.00 | 0.00 | 83 | 1016.4 |
| 20260510032514 | 49 | 40 | 2.0 | 6.0 | 0.00 | 0.00 | 0.00 | 83 | 1016.5 |
| 20260510032015 | 49 | 67 | 2.0 | 8.0 | 0.00 | 0.00 | 0.00 | 83 | 1016.5 |
| 20260510031533 | 49 | 39 | 2.0 | 8.0 | 0.00 | 0.00 | 0.00 | 83 | 1016.6 |
| 20260510031016 | 49 | 49 | 1.0 | 8.0 | 0.00 | 0.00 | 0.00 | 83 | 1016.5 |
| 20260510030512 | 49 | 0 | 0.0 | 6.0 | 0.00 | 0.00 | 0.00 | 83 | 1016.5 |
| 20260510030032 | 49 | 0 | 1.0 | 6.0 | 0.00 | 0.00 | 0.00 | 83 | 1016.5 |
| 20260510025514 | 49 | 31 | 1.0 | 5.0 | 0.00 | 0.00 | 0.00 | 82 | 1016.6 |
| 20260510025015 | 49 | 0 | 0.0 | 5.0 | 0.00 | 0.00 | 0.00 | 82 | 1016.6 |
| 20260510024530 | 49 | 46 | 1.0 | 5.0 | 0.00 | 0.00 | 0.00 | 82 | 1016.7 |
| 20260510024015 | 49 | 39 | 0.0 | 7.0 | 0.00 | 0.00 | 0.00 | 82 | 1016.8 |
| 20260510023514 | 49 | 24 | 0.0 | 7.0 | 0.00 | 0.00 | 0.00 | 82 | 1016.6 |
| 20260510023030 | 49 | 68 | 1.0 | 7.0 | 0.00 | 0.00 | 0.00 | 82 | 1016.7 |
| 20260510022520 | 49 | 0 | 1.0 | 4.0 | 0.00 | 0.00 | 0.00 | 81 | 1016.6 |
| 20260510022016 | 50 | 0 | 0.0 | 4.0 | 0.00 | 0.00 | 0.00 | 81 | 1016.5 |
| 20260510021537 | 50 | 0 | 0.0 | 4.0 | 0.00 | 0.00 | 0.00 | 81 | 1016.7 |
| 20260510021016 | 50 | 49 | 0.0 | 4.0 | 0.00 | 0.00 | 0.00 | 81 | 1016.8 |
| 20260510020515 | 50 | 63 | 0.0 | 4.0 | 0.00 | 0.00 | 0.00 | 81 | 1016.7 |
| 20260510020033 | 50 | 0 | 0.0 | 4.0 | 0.00 | 0.00 | 0.00 | 81 | 1016.7 |
| 20260510015516 | 50 | 0 | 1.0 | 4.0 | 0.00 | 0.00 | 0.00 | 81 | 1016.7 |
| 20260510015015 | 50 | 0 | 0.0 | 4.0 | 0.00 | 0.00 | 0.00 | 81 | 1016.7 |
| 20260510014532 | 50 | 0 | 0.0 | 2.0 | 0.00 | 0.00 | 0.00 | 80 | 1016.8 |
| 20260510014016 | 50 | 0 | 0.0 | 3.0 | 0.00 | 0.00 | 0.00 | 80 | 1017.0 |
| 20260510013519 | 50 | 0 | 0.0 | 3.0 | 0.00 | 0.00 | 0.00 | 80 | 1016.8 |
| 20260510013037 | 50 | 0 | 0.0 | 3.0 | 0.00 | 0.00 | 0.00 | 80 | 1017.0 |
| 20260510012515 | 50 | 0 | 0.0 | 2.0 | 0.00 | 0.00 | 0.00 | 79 | 1017.0 |
| 20260510012015 | 50 | 37 | 0.0 | 3.0 | 0.00 | 0.00 | 0.00 | 79 | 1017.0 |
| 20260510011528 | 51 | 0 | 0.0 | 3.0 | 0.00 | 0.00 | 0.00 | 79 | 1017.0 |
| 20260510011015 | 51 | 0 | 0.0 | 4.0 | 0.00 | 0.00 | 0.00 | 79 | 1017.1 |
| 20260510010536 | 51 | 41 | 0.0 | 4.0 | 0.00 | 0.00 | 0.00 | 78 | 1017.1 |
| 20260510010036 | 51 | 37 | 0.0 | 2.0 | 0.00 | 0.00 | 0.00 | 78 | 1017.2 |
| 20260510005517 | 51 | 0 | 0.0 | 0.0 | 0.00 | 0.00 | 0.00 | 77 | 1017.1 |
| 20260510005015 | 51 | 0 | 0.0 | 0.0 | 0.00 | 0.00 | 0.00 | 77 | 1017.3 |
| 20260510004536 | 52 | 0 | 0.0 | 0.0 | 0.00 | 0.00 | 0.00 | 76 | 1017.3 |
| 20260510004018 | 52 | 0 | 0.0 | 0.0 | 0.00 | 0.00 | 0.00 | 76 | 1017.3 |
| 20260510003517 | 52 | 0 | 0.0 | 1.0 | 0.00 | 0.00 | 0.00 | 76 | 1017.3 |
| 20260510003042 | 52 | 0 | 0.0 | 2.0 | 0.00 | 0.00 | 0.00 | 76 | 1017.3 |
| 20260510002516 | 52 | 0 | 0.0 | 3.0 | 0.00 | 0.00 | 0.00 | 76 | 1017.3 |
| 20260510002017 | 52 | 0 | 0.0 | 3.0 | 0.00 | 0.00 | 0.00 | 76 | 1017.4 |
| 20260510001539 | 52 | 0 | 1.0 | 3.0 | 0.00 | 0.00 | 0.00 | 75 | 1017.5 |
| 20260510001017 | 53 | 0 | 1.0 | 5.0 | 0.00 | 0.00 | 0.00 | 75 | 1017.5 |
| 20260510000518 | 53 | 16 | 0.0 | 5.0 | 0.00 | 0.00 | 0.00 | 75 | 1017.6 |
| 20260510000039 | 53 | 54 | 1.0 | 5.0 | 0.00 | 0.00 | 0.00 | 75 | 1017.5 |
| 20260509235517 | 53 | 0 | 0.0 | 4.0 | 0.00 | 0.00 | 0.00 | 75 | 1017.5 |
| 20260509235020 | 53 | 0 | 0.0 | 3.0 | 0.00 | 0.00 | 0.00 | 75 | 1017.5 |
| 20260509234545 | 53 | 6 | 0.0 | 4.0 | 0.00 | 0.00 | 0.00 | 75 | 1017.5 |
| 20260509234020 | 54 | 50 | 1.0 | 4.0 | 0.00 | 0.00 | 0.00 | 74 | 1017.7 |
| 20260509233516 | 54 | 45 | 0.0 | 3.0 | 0.00 | 0.00 | 0.00 | 74 | 1017.5 |
| 20260509233034 | 54 | 0 | 0.0 | 1.0 | 0.00 | 0.00 | 0.00 | 74 | 1017.6 |
| 20260509232518 | 54 | 0 | 0.0 | 4.0 | 0.00 | 0.00 | 0.00 | 74 | 1017.7 |
| 20260509232017 | 54 | 0 | 0.0 | 4.0 | 0.00 | 0.00 | 0.00 | 73 | 1017.6 |
| 20260509231531 | 54 | 0 | 0.0 | 2.0 | 0.00 | 0.00 | 0.00 | 73 | 1017.7 |
| 20260509231016 | 55 | 0 | 0.0 | 2.0 | 0.00 | 0.00 | 0.00 | 73 | 1017.7 |
| 20260509230516 | 55 | 0 | 0.0 | 4.0 | 0.00 | 0.00 | 0.00 | 73 | 1017.8 |
| 20260509230036 | 55 | 0 | 0.0 | 4.0 | 0.00 | 0.00 | 0.00 | 72 | 1017.8 |
| 20260509225516 | 55 | 49 | 1.0 | 4.0 | 0.00 | 0.00 | 0.00 | 72 | 1017.8 |
| 20260509225016 | 55 | 46 | 0.0 | 5.0 | 0.00 | 0.00 | 0.00 | 72 | 1017.8 |
| 20260509224530 | 55 | 49 | 2.0 | 5.0 | 0.00 | 0.00 | 0.00 | 72 | 1017.7 |
| 20260509224018 | 55 | 58 | 1.0 | 4.0 | 0.00 | 0.00 | 0.00 | 72 | 1017.7 |
| 20260509223517 | 55 | 0 | 0.0 | 5.0 | 0.00 | 0.00 | 0.00 | 72 | 1017.7 |
| 20260509223032 | 55 | 0 | 0.0 | 5.0 | 0.00 | 0.00 | 0.00 | 72 | 1017.7 |
| 20260509222517 | 56 | 58 | 2.0 | 5.0 | 0.00 | 0.00 | 0.00 | 71 | 1017.8 |
| 20260509222020 | 56 | 58 | 1.0 | 5.0 | 0.00 | 0.00 | 0.00 | 71 | 1017.8 |
| 20260509221530 | 56 | 62 | 1.0 | 4.0 | 0.00 | 0.00 | 0.00 | 71 | 1017.7 |
| 20260509221019 | 56 | 60 | 1.0 | 4.0 | 0.00 | 0.00 | 0.00 | 70 | 1017.9 |
| 20260509220516 | 56 | 0 | 0.0 | 3.0 | 0.00 | 0.00 | 0.00 | 70 | 1017.9 |
| 20260509220029 | 57 | 0 | 0.0 | 3.0 | 0.00 | 0.00 | 0.00 | 69 | 1017.9 |
| 20260509215517 | 57 | 63 | 0.0 | 3.0 | 0.00 | 0.00 | 0.00 | 69 | 1017.9 |
| 20260509215016 | 57 | 0 | 1.0 | 3.0 | 0.00 | 0.00 | 0.00 | 69 | 1017.9 |
| 20260509214538 | 57 | 0 | 0.0 | 4.0 | 0.00 | 0.00 | 0.00 | 69 | 1017.8 |
| 20260509214017 | 57 | 0 | 0.0 | 4.0 | 0.00 | 0.00 | 0.00 | 68 | 1017.8 |
| 20260509213518 | 57 | 60 | 2.0 | 4.0 | 0.00 | 0.00 | 0.00 | 69 | 1017.9 |
| 20260509213039 | 57 | 49 | 1.0 | 4.0 | 0.00 | 0.00 | 0.00 | 69 | 1017.9 |
| 20260509212514 | 57 | 0 | 0.0 | 3.0 | 0.00 | 0.00 | 0.00 | 69 | 1017.9 |
| 20260509212018 | 57 | 0 | 0.0 | 3.0 | 0.00 | 0.00 | 0.00 | 68 | 1018.0 |
| 20260509211531 | 57 | 0 | 0.0 | 3.0 | 0.00 | 0.00 | 0.00 | 68 | 1017.8 |
| 20260509211018 | 58 | 54 | 2.0 | 4.0 | 0.00 | 0.00 | 0.00 | 68 | 1017.8 |
| 20260509210519 | 58 | 43 | 1.0 | 4.0 | 0.00 | 0.00 | 0.00 | 68 | 1017.8 |
| 20260509210034 | 58 | 65 | 1.0 | 4.0 | 0.00 | 0.00 | 0.00 | 68 | 1017.8 |
| 20260509205516 | 58 | 68 | 2.0 | 5.0 | 0.00 | 0.00 | 0.00 | 68 | 1017.8 |
| 20260509205015 | 58 | 62 | 2.0 | 5.0 | 0.00 | 0.00 | 0.00 | 68 | 1017.7 |
| 20260509204542 | 58 | 54 | 1.0 | 4.0 | 0.00 | 0.00 | 0.00 | 68 | 1017.7 |
| 20260509204015 | 58 | 53 | 2.0 | 4.0 | 0.00 | 0.00 | 0.00 | 68 | 1017.8 |
| 20260509203518 | 58 | 52 | 2.0 | 4.0 | 0.00 | 0.00 | 0.00 | 67 | 1017.8 |
| 20260509203035 | 58 | 48 | 1.0 | 5.0 | 0.00 | 0.00 | 0.00 | 67 | 1017.9 |
| 20260509202516 | 58 | 48 | 1.0 | 5.0 | 0.00 | 0.00 | 0.00 | 67 | 1017.9 |
| 20260509202017 | 58 | 0 | 0.0 | 3.0 | 0.00 | 0.00 | 0.00 | 67 | 1017.9 |
| 20260509201534 | 59 | 60 | 0.0 | 3.0 | 0.00 | 0.00 | 0.00 | 66 | 1017.8 |
| 20260509201016 | 59 | 60 | 0.0 | 3.0 | 0.00 | 0.00 | 0.00 | 66 | 1017.7 |
| 20260509200518 | 59 | 58 | 0.0 | 3.0 | 0.00 | 0.00 | 0.00 | 66 | 1017.7 |
| 20260509200038 | 59 | 0 | 0.0 | 3.0 | 0.00 | 0.00 | 0.00 | 66 | 1017.7 |
| 20260509195516 | 60 | 56 | 0.0 | 3.0 | 0.00 | 0.00 | 0.00 | 66 | 1017.7 |
| 20260509195019 | 60 | 0 | 1.0 | 3.0 | 0.00 | 0.00 | 0.00 | 65 | 1017.7 |
| 20260509194539 | 60 | 0 | 0.0 | 0.0 | 0.00 | 0.00 | 0.00 | 65 | 1017.7 |
| 20260509194019 | 61 | 0 | 0.0 | 0.0 | 0.00 | 0.00 | 0.00 | 65 | 1017.7 |
| 20260509193516 | 61 | 0 | 0.0 | 0.0 | 0.00 | 0.00 | 0.00 | 64 | 1017.7 |
| 20260509193039 | 61 | 0 | 0.0 | 2.0 | 0.00 | 0.00 | 0.00 | 63 | 1017.7 |
| 20260509192517 | 62 | 0 | 0.0 | 3.0 | 0.00 | 0.00 | 0.00 | 63 | 1017.5 |
| 20260509192018 | 62 | 0 | 1.0 | 3.0 | 0.00 | 0.00 | 0.00 | 62 | 1017.3 |
| 20260509191536 | 62 | 60 | 0.0 | 3.0 | 0.00 | 0.00 | 0.00 | 61 | 1017.2 |
| 20260509191021 | 63 | 0 | 0.0 | 3.0 | 0.00 | 0.00 | 0.00 | 60 | 1017.3 |
| 20260509190516 | 63 | 0 | 0.0 | 3.0 | 0.00 | 0.00 | 0.00 | 60 | 1017.3 |
| 20260509190036 | 63 | 0 | 1.0 | 3.0 | 0.00 | 0.00 | 0.00 | 60 | 1017.2 |
| 20260509185519 | 64 | 0 | 0.0 | 4.0 | 0.00 | 0.00 | 0.00 | 59 | 1017.2 |
| 20260509185021 | 64 | 63 | 0.0 | 4.0 | 0.00 | 0.00 | 0.00 | 59 | 1017.2 |
| 20260509184536 | 64 | 62 | 0.0 | 4.0 | 0.00 | 0.00 | 0.00 | 58 | 1017.2 |
| 20260509184018 | 65 | 57 | 1.0 | 4.0 | 0.00 | 0.00 | 0.00 | 57 | 1017.2 |
| 20260509183517 | 65 | 62 | 0.0 | 5.0 | 0.00 | 0.00 | 0.00 | 57 | 1017.2 |
| 20260509183032 | 65 | 33 | 1.0 | 9.0 | 0.00 | 0.00 | 0.00 | 56 | 1017.2 |
| 20260509182517 | 66 | 23 | 2.0 | 9.0 | 0.00 | 0.00 | 0.00 | 56 | 1017.1 |
| 20260509182014 | 66 | 14 | 2.0 | 9.0 | 0.00 | 0.00 | 0.00 | 55 | 1017.1 |
| 20260509181533 | 66 | 0 | 1.0 | 8.0 | 0.00 | 0.00 | 0.00 | 56 | 1017.1 |
| 20260509181016 | 66 | 0 | 3.0 | 8.0 | 0.00 | 0.00 | 0.00 | 55 | 1016.9 |
| 20260509180517 | 66 | 64 | 2.0 | 5.0 | 0.00 | 0.00 | 0.00 | 55 | 1017.0 |
| 20260509180032 | 67 | 53 | 1.0 | 5.0 | 0.00 | 0.00 | 0.00 | 54 | 1017.1 |
| 20260509175518 | 67 | 59 | 1.0 | 5.0 | 0.00 | 0.00 | 0.00 | 53 | 1017.3 |
| 20260509175021 | 67 | 57 | 1.0 | 5.0 | 0.00 | 0.00 | 0.00 | 53 | 1017.3 |
| 20260509174531 | 67 | 0 | 1.0 | 7.0 | 0.00 | 0.00 | 0.00 | 55 | 1017.2 |
| 20260509174017 | 66 | 0 | 1.0 | 7.0 | 0.00 | 0.00 | 0.00 | 54 | 1017.1 |
| 20260509173516 | 66 | 62 | 2.0 | 7.0 | 0.00 | 0.00 | 0.00 | 54 | 1017.0 |
| 20260509173033 | 67 | 60 | 2.0 | 7.0 | 0.00 | 0.00 | 0.00 | 55 | 1016.9 |
| 20260509172517 | 67 | 74 | 4.0 | 8.0 | 0.00 | 0.00 | 0.00 | 54 | 1016.8 |
| 20260509172015 | 67 | 70 | 3.0 | 8.0 | 0.00 | 0.00 | 0.00 | 53 | 1016.8 |
| 20260509171536 | 67 | 59 | 1.0 | 7.0 | 0.00 | 0.00 | 0.00 | 54 | 1016.8 |
| 20260509171016 | 67 | 65 | 3.0 | 8.0 | 0.00 | 0.00 | 0.00 | 52 | 1017.0 |
| 20260509170516 | 67 | 93 | 4.0 | 9.0 | 0.00 | 0.00 | 0.00 | 53 | 1017.0 |
| 20260509170030 | 67 | 41 | 4.0 | 11.0 | 0.00 | 0.00 | 0.00 | 54 | 1017.0 |
| 20260509165517 | 68 | 64 | 6.0 | 11.0 | 0.00 | 0.00 | 0.00 | 52 | 1016.9 |
| 20260509165021 | 68 | 58 | 3.0 | 8.0 | 0.00 | 0.00 | 0.00 | 53 | 1017.0 |
| 20260509164530 | 69 | 0 | 0.0 | 5.0 | 0.00 | 0.00 | 0.00 | 51 | 1017.0 |
| 20260509164018 | 69 | 358 | 1.0 | 5.0 | 0.00 | 0.00 | 0.00 | 51 | 1016.9 |
| 20260509163517 | 68 | 9 | 0.0 | 8.0 | 0.00 | 0.00 | 0.00 | 55 | 1017.0 |
| 20260509163034 | 68 | 0 | 0.0 | 8.0 | 0.00 | 0.00 | 0.00 | 50 | 1016.9 |
| 20260509162517 | 68 | 68 | 2.0 | 9.0 | 0.00 | 0.00 | 0.00 | 54 | 1017.0 |
| 20260509162020 | 68 | 52 | 3.0 | 9.0 | 0.00 | 0.00 | 0.00 | 50 | 1016.9 |
| 20260509161533 | 68 | 68 | 2.0 | 8.0 | 0.00 | 0.00 | 0.00 | 49 | 1016.9 |
| 20260509161016 | 68 | 11 | 3.0 | 8.0 | 0.00 | 0.00 | 0.00 | 50 | 1016.8 |
| 20260509160517 | 68 | 81 | 4.0 | 9.0 | 0.00 | 0.00 | 0.00 | 51 | 1016.8 |
| 20260509160032 | 68 | 0 | 2.0 | 10.0 | 0.00 | 0.00 | 0.00 | 49 | 1016.9 |
| 20260509155515 | 68 | 63 | 3.0 | 10.0 | 0.00 | 0.00 | 0.00 | 52 | 1016.9 |
| 20260509155016 | 68 | 58 | 3.0 | 8.0 | 0.00 | 0.00 | 0.00 | 53 | 1016.8 |
| 20260509154535 | 68 | 53 | 2.0 | 8.0 | 0.00 | 0.00 | 0.00 | 52 | 1016.9 |
| 20260509154017 | 68 | 62 | 2.0 | 9.0 | 0.00 | 0.00 | 0.00 | 53 | 1016.9 |
| 20260509153521 | 68 | 44 | 1.0 | 11.0 | 0.00 | 0.00 | 0.00 | 54 | 1017.1 |
| 20260509153036 | 68 | 74 | 4.0 | 11.0 | 0.00 | 0.00 | 0.00 | 51 | 1017.1 |
| 20260509152516 | 69 | 88 | 6.0 | 11.0 | 0.00 | 0.00 | 0.00 | 51 | 1017.2 |
| 20260509152015 | 70 | 62 | 3.0 | 11.0 | 0.00 | 0.00 | 0.00 | 52 | 1017.1 |
| 20260509151535 | 69 | 0 | 0.0 | 5.0 | 0.00 | 0.00 | 0.00 | 52 | 1017.2 |
| 20260509151016 | 69 | 0 | 0.0 | 5.0 | 0.00 | 0.00 | 0.00 | 50 | 1017.3 |
| 20260509150517 | 69 | 0 | 1.0 | 6.0 | 0.00 | 0.00 | 0.00 | 52 | 1017.3 |
| 20260509150033 | 68 | 0 | 0.0 | 7.0 | 0.00 | 0.00 | 0.00 | 53 | 1017.4 |
| 20260509145516 | 68 | 353 | 2.0 | 7.0 | 0.00 | 0.00 | 0.00 | 55 | 1017.5 |
| 20260509145018 | 68 | 76 | 0.0 | 7.0 | 0.00 | 0.00 | 0.00 | 55 | 1017.4 |
| 20260509144534 | 68 | 45 | 2.0 | 7.0 | 0.00 | 0.00 | 0.00 | 54 | 1017.3 |
| 20260509144016 | 68 | 89 | 2.0 | 10.0 | 0.00 | 0.00 | 0.00 | 53 | 1017.4 |
| 20260509143517 | 68 | 81 | 4.0 | 10.0 | 0.00 | 0.00 | 0.00 | 51 | 1017.3 |
| 20260509143038 | 68 | 86 | 3.0 | 9.0 | 0.00 | 0.00 | 0.00 | 56 | 1017.5 |
| 20260509142516 | 68 | 92 | 2.0 | 9.0 | 0.00 | 0.00 | 0.00 | 56 | 1017.5 |
| 20260509142017 | 68 | 0 | 0.0 | 9.0 | 0.00 | 0.00 | 0.00 | 59 | 1017.5 |
| 20260509141537 | 68 | 97 | 4.0 | 9.0 | 0.00 | 0.00 | 0.00 | 56 | 1017.5 |
| 20260509141017 | 68 | 93 | 4.0 | 9.0 | 0.00 | 0.00 | 0.00 | 55 | 1017.5 |
| 20260509140517 | 68 | 110 | 6.0 | 9.0 | 0.00 | 0.00 | 0.00 | 56 | 1017.6 |
| 20260509140054 | 68 | 106 | 4.0 | 9.0 | 0.00 | 0.00 | 0.00 | 56 | 1017.6 |
| 20260509135516 | 68 | 97 | 4.0 | 9.0 | 0.00 | 0.00 | 0.00 | 57 | 1017.6 |
| 20260509135017 | 68 | 118 | 3.0 | 12.0 | 0.00 | 0.00 | 0.00 | 57 | 1017.7 |
| 20260509134534 | 67 | 106 | 5.0 | 13.0 | 0.00 | 0.00 | 0.00 | 57 | 1017.8 |
| 20260509134016 | 68 | 54 | 6.0 | 13.0 | 0.00 | 0.00 | 0.00 | 58 | 1017.8 |
| 20260509133517 | 68 | 86 | 4.0 | 12.0 | 0.00 | 0.00 | 0.00 | 57 | 1017.9 |
| 20260509133033 | 67 | 39 | 4.0 | 12.0 | 0.00 | 0.00 | 0.00 | 56 | 1017.9 |
| 20260509132517 | 67 | 65 | 7.0 | 12.0 | 0.00 | 0.00 | 0.00 | 59 | 1018.0 |
| 20260509132015 | 67 | 80 | 4.0 | 10.0 | 0.00 | 0.00 | 0.00 | 57 | 1018.0 |
| 20260509131540 | 67 | 91 | 6.0 | 10.0 | 0.00 | 0.00 | 0.00 | 56 | 1018.1 |
| 20260509131014 | 67 | 91 | 3.0 | 10.0 | 0.00 | 0.00 | 0.00 | 57 | 1018.0 |
| 20260509130517 | 67 | 116 | 4.0 | 10.0 | 0.00 | 0.00 | 0.00 | 56 | 1018.2 |
| 20260509130033 | 67 | 0 | 0.0 | 10.0 | 0.00 | 0.00 | 0.00 | 59 | 1018.2 |
| 20260509125518 | 67 | 113 | 4.0 | 10.0 | 0.00 | 0.00 | 0.00 | 56 | 1018.3 |
| 20260509125018 | 67 | 127 | 4.0 | 9.0 | 0.00 | 0.00 | 0.00 | 57 | 1018.3 |
| 20260509124535 | 66 | 96 | 4.0 | 9.0 | 0.00 | 0.00 | 0.00 | 60 | 1018.4 |
| 20260509124015 | 66 | 86 | 3.0 | 9.0 | 0.00 | 0.00 | 0.00 | 59 | 1018.5 |
| 20260509123515 | 66 | 120 | 4.0 | 9.0 | 0.00 | 0.00 | 0.00 | 60 | 1018.5 |
| 20260509123032 | 66 | 60 | 4.0 | 9.0 | 0.00 | 0.00 | 0.00 | 59 | 1018.6 |
| 20260509122515 | 67 | 77 | 6.0 | 10.0 | 0.00 | 0.00 | 0.00 | 57 | 1018.6 |
| 20260509122015 | 66 | 21 | 2.0 | 10.0 | 0.00 | 0.00 | 0.00 | 58 | 1018.7 |
| 20260509121544 | 66 | 112 | 4.0 | 11.0 | 0.00 | 0.00 | 0.00 | 62 | 1018.7 |
| 20260509121024 | 66 | 67 | 7.0 | 11.0 | 0.00 | 0.00 | 0.00 | 58 | 1018.8 |
| 20260509120517 | 66 | 91 | 3.0 | 10.0 | 0.00 | 0.00 | 0.00 | 60 | 1018.8 |
| 20260509120035 | 66 | 106 | 6.0 | 10.0 | 0.00 | 0.00 | 0.00 | 58 | 1018.8 |
| 20260509115516 | 66 | 81 | 4.0 | 10.0 | 0.00 | 0.00 | 0.00 | 60 | 1018.9 |
| 20260509115016 | 66 | 85 | 1.0 | 13.0 | 0.00 | 0.00 | 0.00 | 59 | 1018.9 |
| 20260509114534 | 66 | 65 | 6.0 | 13.0 | 0.00 | 0.00 | 0.00 | 60 | 1018.8 |
| 20260509114014 | 65 | 97 | 2.0 | 9.0 | 0.00 | 0.00 | 0.00 | 60 | 1018.8 |
| 20260509113516 | 65 | 56 | 5.0 | 11.0 | 0.00 | 0.00 | 0.00 | 62 | 1018.8 |
| 20260509113031 | 65 | 80 | 5.0 | 11.0 | 0.00 | 0.00 | 0.00 | 62 | 1019.0 |
| 20260509112515 | 65 | 81 | 2.0 | 11.0 | 0.00 | 0.00 | 0.00 | 59 | 1019.1 |
| 20260509112016 | 65 | 63 | 5.0 | 11.0 | 0.00 | 0.00 | 0.00 | 61 | 1019.1 |
| 20260509111535 | 65 | 57 | 5.0 | 11.0 | 0.00 | 0.00 | 0.00 | 62 | 1019.3 |
| 20260509111016 | 65 | 84 | 4.0 | 10.0 | 0.00 | 0.00 | 0.00 | 61 | 1019.2 |
| 20260509110517 | 65 | 100 | 3.0 | 10.0 | 0.00 | 0.00 | 0.00 | 62 | 1019.2 |
| 20260509110032 | 65 | 67 | 5.0 | 11.0 | 0.00 | 0.00 | 0.00 | 61 | 1019.2 |
| 20260509105515 | 65 | 72 | 3.0 | 11.0 | 0.00 | 0.00 | 0.00 | 62 | 1019.2 |
| 20260509105017 | 65 | 83 | 6.0 | 12.0 | 0.00 | 0.00 | 0.00 | 58 | 1019.4 |
| 20260509104532 | 65 | 98 | 6.0 | 12.0 | 0.00 | 0.00 | 0.00 | 59 | 1019.4 |
| 20260509104015 | 65 | 89 | 4.0 | 10.0 | 0.00 | 0.00 | 0.00 | 59 | 1019.5 |
| 20260509103515 | 65 | 79 | 4.0 | 13.0 | 0.00 | 0.00 | 0.00 | 60 | 1019.6 |
| 20260509103035 | 65 | 68 | 7.0 | 13.0 | 0.00 | 0.00 | 0.00 | 59 | 1019.6 |
| 20260509102516 | 65 | 100 | 6.0 | 13.0 | 0.00 | 0.00 | 0.00 | 60 | 1019.6 |
| 20260509102015 | 65 | 89 | 5.0 | 10.0 | 0.00 | 0.00 | 0.00 | 59 | 1019.5 |
| 20260509101532 | 65 | 113 | 6.0 | 10.0 | 0.00 | 0.00 | 0.00 | 59 | 1019.7 |
| 20260509101016 | 65 | 101 | 5.0 | 13.0 | 0.00 | 0.00 | 0.00 | 61 | 1019.5 |
| 20260509100515 | 64 | 120 | 4.0 | 13.0 | 0.00 | 0.00 | 0.00 | 62 | 1019.5 |
| 20260509100035 | 64 | 85 | 5.0 | 12.0 | 0.00 | 0.00 | 0.00 | 60 | 1019.4 |
| 20260509095515 | 64 | 92 | 6.0 | 12.0 | 0.00 | 0.00 | 0.00 | 59 | 1019.4 |
| 20260509095015 | 64 | 83 | 5.0 | 10.0 | 0.00 | 0.00 | 0.00 | 61 | 1019.5 |
| 20260509094531 | 64 | 85 | 5.0 | 11.0 | 0.00 | 0.00 | 0.00 | 60 | 1019.5 |
| 20260509094016 | 64 | 111 | 7.0 | 12.0 | 0.00 | 0.00 | 0.00 | 62 | 1019.6 |
| 20260509093515 | 63 | 112 | 7.0 | 12.0 | 0.00 | 0.00 | 0.00 | 60 | 1019.6 |
| 20260509093034 | 64 | 93 | 6.0 | 12.0 | 0.00 | 0.00 | 0.00 | 61 | 1019.6 |
| 20260509092516 | 64 | 78 | 6.0 | 11.0 | 0.00 | 0.00 | 0.00 | 61 | 1019.5 |
| 20260509092016 | 64 | 81 | 4.0 | 11.0 | 0.00 | 0.00 | 0.00 | 63 | 1019.6 |
| 20260509091532 | 63 | 114 | 5.0 | 11.0 | 0.00 | 0.00 | 0.00 | 62 | 1019.7 |
| 20260509091016 | 63 | 114 | 5.0 | 10.0 | 0.00 | 0.00 | 0.00 | 65 | 1019.7 |
| 20260509090516 | 63 | 118 | 5.0 | 10.0 | 0.00 | 0.00 | 0.00 | 62 | 1019.7 |
| 20260509090032 | 63 | 45 | 5.0 | 10.0 | 0.00 | 0.00 | 0.00 | 67 | 1019.6 |
| 20260509085517 | 63 | 60 | 2.0 | 10.0 | 0.00 | 0.00 | 0.00 | 66 | 1019.8 |
| 20260509085015 | 63 | 52 | 3.0 | 10.0 | 0.00 | 0.00 | 0.00 | 68 | 1019.8 |
| 20260509084536 | 62 | 103 | 6.0 | 10.0 | 0.00 | 0.00 | 0.00 | 67 | 1019.6 |
| 20260509084016 | 62 | 87 | 5.0 | 10.0 | 0.00 | 0.00 | 0.00 | 66 | 1019.7 |
| 20260509083514 | 62 | 102 | 3.0 | 10.0 | 0.00 | 0.00 | 0.00 | 68 | 1019.6 |
| 20260509083044 | 62 | 58 | 3.0 | 10.0 | 0.00 | 0.00 | 0.00 | 70 | 1019.7 |
| 20260509082514 | 61 | 104 | 4.0 | 8.0 | 0.00 | 0.00 | 0.00 | 68 | 1019.8 |
| 20260509082015 | 61 | 76 | 3.0 | 7.0 | 0.00 | 0.00 | 0.00 | 71 | 1019.7 |
| 20260509081533 | 61 | 93 | 2.0 | 9.0 | 0.00 | 0.00 | 0.00 | 72 | 1019.8 |
| 20260509081015 | 60 | 68 | 3.0 | 9.0 | 0.00 | 0.00 | 0.00 | 72 | 1019.8 |
| 20260509080516 | 60 | 91 | 2.0 | 9.0 | 0.00 | 0.00 | 0.00 | 73 | 1019.8 |
| 20260509080031 | 59 | 52 | 4.0 | 9.0 | 0.00 | 0.00 | 0.00 | 69 | 1020.0 |
| 20260509075521 | 59 | 75 | 5.0 | 9.0 | 0.00 | 0.00 | 0.00 | 71 | 1020.0 |
| 20260509075019 | 59 | 82 | 4.0 | 8.0 | 0.00 | 0.00 | 0.00 | 72 | 1020.0 |
| 20260509074530 | 58 | 112 | 3.0 | 8.0 | 0.00 | 0.00 | 0.00 | 74 | 1020.1 |
| 20260509074016 | 57 | 104 | 4.0 | 8.0 | 0.00 | 0.00 | 0.00 | 74 | 1020.1 |
| 20260509073515 | 57 | 100 | 5.0 | 8.0 | 0.00 | 0.00 | 0.00 | 74 | 1020.2 |
| 20260509073029 | 56 | 84 | 3.0 | 7.0 | 0.00 | 0.00 | 0.00 | 76 | 1020.1 |
| 20260509072517 | 56 | 95 | 3.0 | 7.0 | 0.00 | 0.00 | 0.00 | 77 | 1020.1 |
| 20260509072015 | 56 | 100 | 3.0 | 7.0 | 0.00 | 0.00 | 0.00 | 77 | 1020.3 |
| 20260509071531 | 55 | 70 | 3.0 | 7.0 | 0.00 | 0.00 | 0.00 | 78 | 1020.3 |
| 20260509071018 | 54 | 109 | 3.0 | 7.0 | 0.00 | 0.00 | 0.00 | 79 | 1020.2 |
| 20260509070517 | 54 | 106 | 3.0 | 7.0 | 0.00 | 0.00 | 0.00 | 80 | 1020.2 |
| 20260509070035 | 53 | 101 | 3.0 | 6.0 | 0.00 | 0.00 | 0.00 | 81 | 1020.4 |
| 20260509065514 | 53 | 101 | 2.0 | 4.0 | 0.00 | 0.00 | 0.00 | 81 | 1020.3 |
| 20260509065019 | 53 | 99 | 2.0 | 4.0 | 0.00 | 0.00 | 0.00 | 81 | 1020.4 |
| 20260509064532 | 52 | 0 | 0.0 | 4.0 | 0.00 | 0.00 | 0.00 | 82 | 1020.3 |
| 20260509064019 | 52 | 93 | 2.0 | 6.0 | 0.00 | 0.00 | 0.00 | 83 | 1020.2 |
| 20260509063516 | 52 | 90 | 2.0 | 6.0 | 0.00 | 0.00 | 0.00 | 84 | 1020.2 |
| 20260509063034 | 51 | 93 | 2.0 | 6.0 | 0.00 | 0.00 | 0.00 | 86 | 1020.2 |
| 20260509062518 | 51 | 67 | 1.0 | 3.0 | 0.00 | 0.00 | 0.00 | 88 | 1020.2 |
| 20260509062021 | 50 | 36 | 0.0 | 3.0 | 0.00 | 0.00 | 0.00 | 88 | 1020.2 |
| 20260509061541 | 49 | 16 | 1.0 | 3.0 | 0.00 | 0.00 | 0.00 | 89 | 1020.2 |
| 20260509061016 | 49 | 0 | 0.0 | 3.0 | 0.00 | 0.00 | 0.00 | 90 | 1020.1 |
| 20260509060515 | 49 | 355 | 1.0 | 3.0 | 0.00 | 0.00 | 0.00 | 90 | 1020.1 |
| 20260509060037 | 48 | 0 | 0.0 | 0.0 | 0.00 | 0.00 | 0.00 | 90 | 1020.1 |
| 20260509055516 | 48 | 0 | 0.0 | 0.0 | 0.00 | 0.00 | 0.00 | 90 | 1020.2 |
| 20260509055016 | 48 | 0 | 0.0 | 0.0 | 0.00 | 0.00 | 0.00 | 90 | 1020.2 |
| 20260509054531 | 47 | 0 | 0.0 | 0.0 | 0.00 | 0.00 | 0.00 | 90 | 1020.1 |
| 20260509054016 | 47 | 0 | 0.0 | 0.0 | 0.00 | 0.00 | 0.00 | 90 | 1020.2 |